SWA3810 KMKE-KDAL

Flight info

Callsign SWA3810
Flight time N/A
Altitude 36000
Route ACCRA5 ACCRA RBS STL ZALDA Q27 FSM CAMAL CRIKT1
Aircraft B738/M-SDE2E3FGHIRWXY/LB1

Departure

Time 2026-04-20 00:56
Airport General Mitchell International Airport (KMKE)

Arrival

Time N/A
Airport Dallas Love Field (KDAL)
Time Latitude Longitude Altitude Speed Heading
2026-04-20 00:35 42.95058 -87.89951 673 ft 0 kts 257°
2026-04-20 00:48 42.95061 -87.89929 673 ft 3 kts 257°
2026-04-20 00:48 42.95068 -87.89894 673 ft 3 kts 257°
2026-04-20 00:48 42.95068 -87.89889 673 ft 0 kts 257°
2026-04-20 00:49 42.95066 -87.89894 673 ft 1 kts 223°
2026-04-20 00:49 42.95048 -87.89871 673 ft 9 kts 117°
2026-04-20 00:50 42.94988 -87.89779 673 ft 13 kts 142°
2026-04-20 00:50 42.94927 -87.89712 673 ft 10 kts 159°
2026-04-20 00:50 42.94829 -87.89713 674 ft 19 kts 185°
2026-04-20 00:50 42.94686 -87.89736 675 ft 18 kts 188°
2026-04-20 00:51 42.94592 -87.89784 678 ft 11 kts 230°
2026-04-20 00:51 42.94551 -87.89875 678 ft 13 kts 241°
2026-04-20 00:51 42.94502 -87.89964 680 ft 8 kts 196°
2026-04-20 00:51 42.94439 -87.89957 681 ft 11 kts 170°
2026-04-20 00:52 42.94338 -87.89931 681 ft 16 kts 169°
2026-04-20 00:52 42.94224 -87.89906 681 ft 18 kts 171°
2026-04-20 00:52 42.94088 -87.89885 684 ft 21 kts 180°
2026-04-20 00:52 42.93936 -87.89887 686 ft 23 kts 179°
2026-04-20 00:53 42.93826 -87.89886 688 ft 0 kts 181°
2026-04-20 00:53 42.93786 -87.89887 689 ft 9 kts 181°
2026-04-20 00:53 42.93689 -87.89892 691 ft 17 kts 181°
2026-04-20 00:54 42.93539 -87.89894 694 ft 24 kts 181°
2026-04-20 00:54 42.93386 -87.89903 698 ft 18 kts 183°
2026-04-20 00:54 42.93277 -87.89918 701 ft 15 kts 186°
2026-04-20 00:54 42.93187 -87.89924 703 ft 10 kts 165°
2026-04-20 00:55 42.93153 -87.89861 702 ft 11 kts 103°
2026-04-20 00:55 42.93216 -87.89735 698 ft 25 kts 11°
2026-04-20 00:55 42.93566 -87.89674 690 ft 89 kts
2026-04-20 00:55 42.94440 -87.89529 678 ft 160 kts
2026-04-20 00:56 42.95684 -87.89291 943 ft 199 kts
2026-04-20 00:56 42.97165 -87.88935 1568 ft 229 kts
2026-04-20 00:56 42.98727 -87.88501 2706 ft 228 kts
2026-04-20 00:56 43.00219 -87.88031 3786 ft 226 kts
2026-04-20 00:57 43.01801 -87.87515 4594 ft 238 kts
2026-04-20 00:57 43.03475 -87.86968 5015 ft 252 kts 10°
2026-04-20 00:57 43.05177 -87.86412 5000 ft 250 kts
2026-04-20 00:57 43.06845 -87.85866 5007 ft 247 kts
2026-04-20 00:58 43.08538 -87.85313 5106 ft 250 kts
2026-04-20 00:58 43.10281 -87.85183 5614 ft 257 kts 343°
2026-04-20 00:58 43.11755 -87.86349 6789 ft 250 kts 311°
2026-04-20 00:58 43.12543 -87.88439 7780 ft 255 kts 285°
2026-04-20 00:59 43.12731 -87.90824 8792 ft 259 kts 274°
2026-04-20 00:59 43.12548 -87.93270 9725 ft 267 kts 255°
2026-04-20 00:59 43.11508 -87.95444 10523 ft 287 kts 226°
2026-04-20 00:59 43.09661 -87.96783 10923 ft 321 kts 201°
2026-04-20 01:00 43.07433 -87.97617 11388 ft 342 kts 200°
2026-04-20 01:00 43.05105 -87.98582 11877 ft 360 kts 202°
2026-04-20 01:00 43.02694 -87.99645 12637 ft 371 kts 203°
2026-04-20 01:00 43.00184 -88.00771 12997 ft 384 kts 203°
2026-04-20 01:01 42.97686 -88.01899 13099 ft 374 kts 204°
2026-04-20 01:01 42.95215 -88.03007 13654 ft 375 kts 204°
2026-04-20 01:01 42.92757 -88.04105 14550 ft 381 kts 204°
2026-04-20 01:01 42.90185 -88.05260 15271 ft 390 kts 205°
2026-04-20 01:02 42.87617 -88.06410 16065 ft 396 kts 205°
2026-04-20 01:02 42.84962 -88.07600 16817 ft 403 kts 206°
2026-04-20 01:02 42.82293 -88.08790 17539 ft 410 kts 206°
2026-04-20 01:02 42.79585 -88.09996 18287 ft 415 kts 207°
2026-04-20 01:03 42.76817 -88.11244 19011 ft 421 kts 207°
2026-04-20 01:03 42.74046 -88.12487 19726 ft 426 kts 207°
2026-04-20 01:03 42.71220 -88.13653 20538 ft 432 kts 205°
2026-04-20 01:03 42.68229 -88.14448 21142 ft 450 kts 194°
2026-04-20 01:04 42.65060 -88.14593 21862 ft 461 kts 188°
2026-04-20 01:04 42.61817 -88.14554 22511 ft 467 kts 188°
2026-04-20 01:04 42.58576 -88.14526 23140 ft 471 kts 189°
2026-04-20 01:04 42.55281 -88.14503 23708 ft 477 kts 189°
2026-04-20 01:05 42.51953 -88.14438 24354 ft 482 kts 188°
2026-04-20 01:05 42.48581 -88.14305 25036 ft 485 kts 188°
2026-04-20 01:05 42.45186 -88.14166 25489 ft 493 kts 187°
2026-04-20 01:05 42.41768 -88.13862 26102 ft 501 kts 182°
2026-04-20 01:06 42.38290 -88.13110 26837 ft 505 kts 178°
2026-04-20 01:06 42.34846 -88.12227 27166 ft 515 kts 177°
2026-04-20 01:06 42.31282 -88.11306 27657 ft 519 kts 177°
2026-04-20 01:06 42.27775 -88.10397 28378 ft 517 kts 177°
2026-04-20 01:07 42.24227 -88.09534 28729 ft 524 kts 178°
2026-04-20 01:07 42.20642 -88.08648 29363 ft 525 kts 177°
2026-04-20 01:07 42.17066 -88.07752 30068 ft 521 kts 178°
2026-04-20 01:07 42.13498 -88.06859 30568 ft 521 kts 177°
2026-04-20 01:08 42.09928 -88.05963 30992 ft 522 kts 178°
2026-04-20 01:08 42.06398 -88.05093 31415 ft 520 kts 177°
2026-04-20 01:08 42.02839 -88.04230 31867 ft 515 kts 178°
2026-04-20 01:08 41.99318 -88.03440 32268 ft 511 kts 179°
2026-04-20 01:09 41.95802 -88.02833 32497 ft 511 kts 182°
2026-04-20 01:09 41.92310 -88.02526 32861 ft 503 kts 188°
2026-04-20 01:09 41.88797 -88.02704 33155 ft 499 kts 192°
2026-04-20 01:09 41.85358 -88.03016 33550 ft 496 kts 192°
2026-04-20 01:10 41.81933 -88.03360 33978 ft 495 kts 192°
2026-04-20 01:10 41.75092 -88.04041 34830 ft 492 kts 192°
2026-04-20 01:10 41.71709 -88.04385 35250 ft 490 kts 192°
2026-04-20 01:11 41.68308 -88.04735 35687 ft 487 kts 192°
2026-04-20 01:11 41.64967 -88.05084 35971 ft 488 kts 192°
2026-04-20 01:11 41.61562 -88.05450 36210 ft 490 kts 192°
2026-04-20 01:11 41.58161 -88.05817 36232 ft 493 kts 192°
2026-04-20 01:12 41.51392 -88.06514 36238 ft 482 kts 192°
2026-04-20 01:12 41.44732 -88.07218 36237 ft 484 kts 192°
2026-04-20 01:13 41.38003 -88.07946 36226 ft 488 kts 192°
2026-04-20 01:13 41.31282 -88.08659 36225 ft 484 kts 192°
2026-04-20 01:14 41.24576 -88.09376 36226 ft 482 kts 192°
2026-04-20 01:14 41.17925 -88.10087 36228 ft 483 kts 193°
2026-04-20 01:15 41.11221 -88.10805 36230 ft 486 kts 192°
2026-04-20 01:15 41.04488 -88.11521 36241 ft 485 kts 193°
2026-04-20 01:16 40.97753 -88.12233 36243 ft 483 kts 193°
2026-04-20 01:16 40.91069 -88.12935 36239 ft 484 kts 193°
2026-04-20 01:17 40.84394 -88.13634 36234 ft 482 kts 193°
2026-04-20 01:17 40.77700 -88.14346 36227 ft 480 kts 193°
2026-04-20 01:18 40.71067 -88.15056 36223 ft 480 kts 193°
2026-04-20 01:18 40.64420 -88.15823 36228 ft 474 kts 198°
2026-04-20 01:19 40.61261 -88.16758 36230 ft 463 kts 207°
2026-04-20 01:19 40.58301 -88.18304 36222 ft 450 kts 218°
2026-04-20 01:19 40.55735 -88.20444 36224 ft 435 kts 227°
2026-04-20 01:19 40.53498 -88.23035 36229 ft 428 kts 234°
2026-04-20 01:20 40.49394 -88.28681 36225 ft 426 kts 236°
2026-04-20 01:20 40.45343 -88.34321 36235 ft 424 kts 236°
2026-04-20 01:21 40.41316 -88.39899 36229 ft 423 kts 236°
2026-04-20 01:21 40.37260 -88.45542 36237 ft 425 kts 236°
2026-04-20 01:22 40.33204 -88.51160 36236 ft 426 kts 236°
2026-04-20 01:22 40.29166 -88.56729 36231 ft 423 kts 236°
2026-04-20 01:23 40.25111 -88.62332 36247 ft 423 kts 236°
2026-04-20 01:23 40.21051 -88.67914 36235 ft 424 kts 236°
2026-04-20 01:24 40.16992 -88.73492 36244 ft 425 kts 236°
2026-04-20 01:24 40.12943 -88.79044 36241 ft 425 kts 236°
2026-04-20 01:25 40.08878 -88.84619 36245 ft 423 kts 236°
2026-04-20 01:25 40.04827 -88.90157 36241 ft 423 kts 236°
2026-04-20 01:26 40.00760 -88.95712 36253 ft 424 kts 236°
2026-04-20 01:26 39.96706 -89.01228 36246 ft 422 kts 235°
2026-04-20 01:27 39.92534 -89.06590 36249 ft 423 kts 234°
2026-04-20 01:27 39.88305 -89.11916 36245 ft 423 kts 234°
2026-04-20 01:28 39.84094 -89.17200 36249 ft 424 kts 234°
2026-04-20 01:28 39.79853 -89.22508 36248 ft 424 kts 234°
2026-04-20 01:29 39.75624 -89.27781 36246 ft 421 kts 234°
2026-04-20 01:29 39.71395 -89.33047 36240 ft 424 kts 234°
2026-04-20 01:30 39.67131 -89.38331 36240 ft 422 kts 234°
2026-04-20 01:30 39.62912 -89.43565 36245 ft 419 kts 234°
2026-04-20 01:31 39.58697 -89.48777 36254 ft 421 kts 234°
2026-04-20 01:31 39.54435 -89.54041 36245 ft 425 kts 234°
2026-04-20 01:32 39.50196 -89.59267 36244 ft 421 kts 234°
2026-04-20 01:32 39.45970 -89.64458 36253 ft 418 kts 234°
2026-04-20 01:33 39.41735 -89.69662 36245 ft 420 kts 233°
2026-04-20 01:33 39.37501 -89.74849 36244 ft 421 kts 233°
2026-04-20 01:34 39.33248 -89.80042 36234 ft 421 kts 233°
2026-04-20 01:34 39.29002 -89.85227 36224 ft 420 kts 233°
2026-04-20 01:35 39.24800 -89.90368 36235 ft 417 kts 233°
2026-04-20 01:35 39.20575 -89.95502 36247 ft 418 kts 233°
2026-04-20 01:36 39.16359 -90.00617 36233 ft 419 kts 233°
2026-04-20 01:36 39.12122 -90.05769 36238 ft 419 kts 233°
2026-04-20 01:37 39.07890 -90.10907 36272 ft 417 kts 233°
2026-04-20 01:37 39.03685 -90.15977 36246 ft 415 kts 233°
2026-04-20 01:38 38.99475 -90.21056 36249 ft 415 kts 233°
2026-04-20 01:38 38.95276 -90.26122 36244 ft 416 kts 233°
2026-04-20 01:39 38.91065 -90.31181 36243 ft 418 kts 233°
2026-04-20 01:39 38.86810 -90.36293 36240 ft 416 kts 233°
2026-04-20 01:40 38.82621 -90.41306 36242 ft 415 kts 234°
2026-04-20 01:40 38.80508 -90.43846 35977 ft 417 kts 233°